This demonstration page uses our WeatherBlox Daily Observations layout. Learn more.

Left ArrowRight Arrow

38.20091, -84.87328

Hourly Observations for February 27, 2020

Temp ( °F °C ) Dew Point ( °F °C ) Humidity (%) Winds ( mph kmh ) Pressure ( in mb ) Visibility ( mi km ) Precip ( " mm )
12:02 am 00:02 Cloudy with Light Snow 30 -1.1 23 -5 75 75 NW 14 22 30.10 1019 2 2 0.00 0.00
12:05 am 00:05 Cloudy with Light Snow 30 -1.1 23 -5 75 75 NW 14 22 30.09 1019 3 5 0.00 0.00
12:11 am 00:11 Cloudy 30 -1.1 24 -4.4 79 79 NW 8 13 30.09 1019 9 14 0.00 0.00
12:53 am 00:53 Cloudy 30 -1.1 24 -4.4 79 79 WNW 8 13 30.07 1018 10 16 0.00 0.00
1:53 am 01:53 Cloudy 30 -1.1 23 -5 75 75 WNW 7 11 30.08 1019 10 16 0.00 0.00
2:01 am 02:01 Cloudy 30 -1.1 23 -5 75 75 WNW 8 13 30.10 1019 9 14 0.00 0.00
2:51 am 02:51 Cloudy 30 -1 21 -6 69 69 NW 12 19 30.12 1020 10 16 0.00 0.00
2:53 am 02:53 Cloudy 30 -1.1 22 -5.6 72 72 NW 9 15 30.09 1019 10 16 0.00 0.00
3:15 am 03:15 Cloudy 30 -1.1 21 -6.1 69 69 NW 12 19 30.12 1020 10 16 0.00 0.00
3:43 am 03:43 Cloudy 29 -1.7 19 -7.2 66 66 WNW 10 17 30.13 1020 10 16 0.00 0.00
3:53 am 03:53 Cloudy 29 -1.7 18 -7.8 63 63 WNW 9 15 30.10 1019 10 16 0.00 0.00
4:53 am 04:53 Cloudy 29 -1.7 17 -8.3 61 61 WNW 6 9 30.12 1020 10 16 0.00 0.00
5:53 am 05:53 Cloudy 29 -1.7 19 -7.2 66 66 W 12 19 30.13 1020 10 16 0.00 0.00
6:53 am 06:53 Cloudy 27 -2.8 15 -9.4 61 61 W 10 17 30.14 1021 10 16 0.00 0.00
7:53 am 07:53 Cloudy 27 -2.8 15 -9.4 61 61 W 8 13 30.16 1021 10 16 0.00 0.00
8:53 am 08:53 Cloudy 28 -2.2 13 -10.6 53 53 WNW 9 15 30.19 1022 10 16 0.00 0.00
9:53 am 09:53 Cloudy 30 -1.1 15 -9.4 54 54 W 9 15 30.18 1022 10 16 0.00 0.00
10:53 am 10:53 Cloudy 31 -0.6 17 -8.3 56 56 W 10 17 30.17 1022 10 16 0.00 0.00
11:53 am 11:53 Cloudy 33 0.6 18 -7.8 54 54 WSW 14 22 30.17 1022 10 16 0.00 0.00
12:53 pm 12:53 Mostly Cloudy 35 1.7 18 -7.8 50 50 W 9 15 30.14 1021 10 16 0.00 0.00
1:53 pm 13:53 Cloudy 36 2.2 18 -7.8 48 48 W 16 26 30.13 1020 10 16 0.00 0.00
2:53 pm 14:53 Cloudy 37 2.8 17 -8.3 44 44 W 10 17 30.13 1020 10 16 0.00 0.00
3:53 pm 15:53 Cloudy 38 3.3 18 -7.8 44 44 W 10 17 30.11 1020 10 16 0.00 0.00
4:53 pm 16:53 Cloudy 38 3.3 19 -7.2 46 46 W 8 13 30.11 1020 10 16 0.00 0.00
5:53 pm 17:53 Cloudy 37 2.8 18 -7.8 46 46 WSW 8 13 30.12 1020 10 16 0.00 0.00
6:53 pm 18:53 Mostly Clear 35 1.7 18 -7.8 50 50 WSW 5 7 30.12 1020 10 16 0.00 0.00
7:53 pm 19:53 Clear 33 0.6 19 -7.2 56 56 SSW 7 11 30.12 1020 10 16 0.00 0.00
8:53 pm 20:53 Clear 30 -1.1 19 -7.2 64 64 SW 5 7 30.12 1020 10 16 0.00 0.00
9:53 pm 21:53 Cloudy 30 -1.1 21 -6.1 69 69 SW 5 7 30.11 1020 10 16 0.00 0.00
10:53 pm 22:53 Cloudy 33 0.6 21 -6.1 61 61 SW 8 13 30.10 1019 10 16 0.00 0.00
11:53 pm 23:53 Cloudy 33 0.6 21 -6.1 61 61 SW 9 15 30.09 1019 10 16 0.00 0.00

Powered by AerisWeather